Lid_Strength_Index
4 7 7 8 12 11 11 10 9 9 8 6 6 7 8 7 9 11 1 0 -0 -0 -1 -1 -1 -2 -2 -2 -2 -2 -2 -2 -2 -2 -2 -2 -2 -2 -2 -3 -3 -3 -2 -2 -2 -2 -2 -2 -2
7 7 7 10 14 15 12 10 10 8 7 6 6 6 7 9 5 4 3 0 -1 -1 -1 -1 -1 -2 -2 -2 -3 -2 -2 -2 -2 -2 -2 -2 -2 -2 -2 -2 -3 -2 -2 -2 -2 -2 -2 -2 -2
7 8 9 13 15 15 13 10 9 7 6 7 7 5 6 7 4 3 1 -0 -1 -1 -1 -1 -1 -2 -2 -2 -3 -2 -2 -3 -2 -3 -2 -2 -2 -2 -2 -2 -3 -2 -2 -2 -2 -2 -2 -2 -2
8 8 10 14 14 13 11 9 8 8 6 5 6 8 5 3 3 1 1 -0 -0 -1 -1 -1 -1 -2 -2 -2 -2 -2 -2 -2 -2 -2 -2 -2 -2 -2 -2 -2 -3 -2 -2 -2 -2 -2 -2 -2 -2
9 10 14 14 14 13 11 8 8 8 8 6 6 8 7 3 1 1 0 0 0 -0 -1 -1 -1 -2 -2 -2 -2 -2 -2 -2 -3 -2 -3 -2 -2 -2 -2 -2 -2 -2 -2 -2 -2 -2 -2 -2 -2
9 10 14 15 15 13 10 7 8 8 7 6 7 8 7 2 2 2 0 0 -1 -0 -1 -1 0 -1 -1 -2 -2 -2 -2 -2 -2 -2 -2 -3 -2 -2 -2 -2 -2 -2 -2 -2 -2 -2 -2 -2 -2
10 11 14 15 15 14 10 8 8 8 7 7 5 9 6 4 2 1 1 0 -0 -1 -1 -1 -1 -1 0 -1 -1 -1 -2 -2 -2 -2 -2 -2 -2 -2 -2 -2 -2 -2 -2 -2 -2 -2 -2 -2 -2
10 11 12 14 14 14 12 8 8 7 7 4 4 8 8 4 1 1 1 0 0 -0 -0 -1 -1 -1 -1 -1 0 -0 -1 -1 -2 -2 -1 -1 -1 -2 -2 -1 -2 -2 -2 -2 -2 -2 -2 -2 -2
9 13 13 13 14 13 13 10 9 8 6 7 5 5 3 2 1 2 2 1 1 1 0 -1 -0 -0 -1 -1 0 0 -0 -0 -0 -1 1 0 -1 -1 -1 -1 -2 -2 -2 -2 -2 -2 -2 -1 -1
11 12 12 11 12 13 13 11 9 9 7 7 6 4 3 2 2 3 3 3 2 2 1 0 -0 0 -1 -1 -1 -1 -1 -1 -1 -1 -1 -1 -1 -1 -1 0 -0 -1 -1 -2 -2 -2 -0 -0 -1
10 12 11 11 11 12 12 12 9 9 9 7 6 6 4 3 3 3 3 2 2 1 1 1 -0 -0 -1 -0 -1 -1 -1 -1 -1 -1 -1 -0 -0 -1 -1 -1 -1 -2 0 -1 -1 -1 -0 -0 -0
12 11 11 9 11 13 13 12 10 9 8 8 5 4 4 4 4 3 3 2 2 1 1 1 0 0 0 -0 -0 -1 -0 -1 -1 -1 -1 -1 0 0 -0 -1 -1 -1 -1 -0 -0 -0 -0 0 0
11 12 12 11 12 13 12 13 11 10 9 6 4 4 4 4 4 3 2 2 2 2 1 1 0 0 1 1 0 -0 0 -0 -1 -1 -1 -1 -0 -0 -0 -0 -0 -0 -0 -0 -0 -0 0 0 1
10 12 12 11 12 12 12 14 13 9 8 5 5 5 4 4 4 3 3 2 2 2 1 0 0 -0 -0 1 -0 -0 -0 -0 -0 -1 -1 -0 -0 -0 0 0 0 -0 -0 -0 -0 -0 -0 0 1
11 12 12 10 12 12 12 13 14 10 7 6 6 5 5 4 3 3 3 2 2 2 2 1 0 0 -0 -0 -1 -1 0 -0 -0 -0 -1 -0 0 0 0 1 1 0 0 1 0 0 0 1 1
11 11 14 12 13 12 12 13 12 11 9 7 6 6 5 4 4 3 2 2 2 2 3 2 0 0 0 -0 -0 -1 -1 -1 -1 -1 -1 -0 1 1 1 1 1 1 1 1 1 1 1 1 1
11 15 14 13 13 13 14 14 12 12 10 9 6 6 6 5 4 4 3 2 2 2 2 2 1 1 0 0 0 -0 -0 -1 -1 -1 -0 0 1 2 2 2 2 1 1 1 1 2 2 2 2
15 15 13 14 12 14 15 15 13 13 13 10 9 6 6 5 5 3 3 3 2 2 2 2 2 2 1 1 1 1 1 1 0 0 0 -0 0 1 2 2 2 2 2 2 2 2 3 2 2
12 12 13 14 11 13 14 13 12 12 14 13 11 9 6 6 4 3 3 3 3 2 2 2 2 2 2 2 2 2 2 1 0 0 0 -0 -0 1 1 1 2 2 2 2 3 3 3 2 3
11 12 13 12 12 13 13 15 14 13 13 12 12 12 9 6 5 5 4 3 3 3 2 2 2 2 2 2 1 1 1 0 -0 -1 -0 -0 -0 0 1 1 2 2 2 2 3 3 3 4 4
14 14 15 14 14 14 15 16 15 13 14 14 14 12 12 9 6 5 7 4 4 3 2 1 1 1 1 1 2 3 2 2 1 0 0 0 -0 0 1 1 1 2 2 2 3 3 4 4 5
15 12 13 14 15 18 15 19 15 13 12 15 13 14 13 13 10 8 8 8 5 3 2 2 1 1 1 1 2 2 2 2 1 1 0 -0 -1 -0 0 1 1 2 2 2 3 3 3 4 4
13 12 13 13 15 16 17 19 18 15 14 12 13 13 13 12 12 10 9 8 8 6 3 2 1 1 1 1 1 2 2 2 2 2 2 2 -0 -1 -0 0 1 1 2 2 2 3 4 3 3
12 13 14 15 14 18 17 18 18 16 14 14 13 13 12 12 12 11 11 11 10 9 6 3 2 1 1 1 1 1 1 2 3 2 3 2 1 -0 -0 0 1 1 2 2 2 2 3 3 3
12 13 18 19 19 20 19 18 15 15 14 13 12 13 13 12 12 13 12 11 10 9 8 6 3 2 1 1 1 1 1 2 2 2 2 2 1 1 1 1 1 2 2 2 2 3 3 3 4
12 13 17 22 22 20 19 19 16 14 12 13 13 13 14 14 14 13 13 11 9 9 8 8 7 3 2 1 1 1 1 2 2 2 3 2 2 1 2 3 3 4 4 4 5 5 6 6 5
14 15 13 17 23 22 19 18 15 14 14 14 14 14 13 13 13 13 13 11 9 8 7 7 8 8 7 4 3 2 2 2 3 4 3 4 4 5 5 5 6 6 7 7 7 7 8 8 8
13 11 16 16 22 24 20 20 17 16 15 14 14 13 12 12 12 12 12 11 9 8 7 7 8 8 7 8 8 6 4 3 3 4 6 6 7 7 7 7 8 9 9 9 8 9 10 10 10
15 14 15 15 17 20 22 18 16 14 13 13 13 13 13 12 13 12 11 11 10 9 8 8 8 8 7 7 7 6 5 5 5 6 7 8 9 10 9 9 10 10 11 10 10 11 11 12 12
13 14 13 16 19 19 19 17 14 14 14 14 14 13 13 12 12 12 11 11 11 9 9 9 9 9 9 9 7 6 7 6 6 8 9 9 11 11 11 11 12 12 11 11 12 12 12 13 13